TimeCDT,TemperatureF,Dew PointF,Humidity,Sea Level PressureIn,VisibilityMPH,Wind Direction,Wind SpeedMPH,Gust SpeedMPH,PrecipitationIn,Events,Conditions,WindDirDegrees,DateUTC
12:12 AM,64.4,41.0,42,29.68,10.0,West,4.6,-,N/A,,Clear,280,2013-05-14 05:12:00
12:32 AM,62.6,39.2,42,29.67,10.0,WNW,5.8,-,N/A,,Clear,290,2013-05-14 05:32:00
12:52 AM,62.6,39.2,42,29.67,10.0,Calm,Calm,-,N/A,,Clear,0,2013-05-14 05:52:00
1:12 AM,60.8,39.2,45,29.67,10.0,Calm,Calm,-,N/A,,Clear,0,2013-05-14 06:12:00
1:32 AM,60.8,39.2,45,29.67,10.0,Calm,Calm,-,N/A,,Clear,0,2013-05-14 06:32:00
1:52 AM,57.2,39.2,51,29.67,10.0,Calm,Calm,-,N/A,,Clear,0,2013-05-14 06:52:00
2:12 AM,55.4,39.2,54,29.67,10.0,Calm,Calm,-,N/A,,Clear,0,2013-05-14 07:12:00
2:32 AM,53.6,39.2,58,29.67,10.0,South,3.5,-,N/A,,Clear,190,2013-05-14 07:32:00
2:52 AM,53.6,37.4,54,29.66,10.0,SSE,4.6,-,N/A,,Clear,160,2013-05-14 07:52:00
3:12 AM,51.8,39.2,62,29.65,10.0,South,3.5,-,N/A,,Clear,170,2013-05-14 08:12:00
3:32 AM,53.6,39.2,58,29.64,10.0,SSE,4.6,-,N/A,,Clear,150,2013-05-14 08:32:00
3:52 AM,51.8,39.2,62,29.64,10.0,SSE,5.8,-,N/A,,Clear,150,2013-05-14 08:52:00
4:12 AM,51.8,39.2,62,29.63,10.0,SE,8.1,-,N/A,,Clear,140,2013-05-14 09:12:00
4:52 AM,53.6,41.0,62,29.61,10.0,ESE,9.2,-,N/A,,Clear,120,2013-05-14 09:52:00
5:12 AM,51.8,39.2,62,29.60,10.0,ESE,9.2,-,N/A,,Clear,120,2013-05-14 10:12:00
5:32 AM,53.6,41.0,62,29.62,10.0,SE,5.8,-,N/A,,Unknown,140,2013-05-14 10:32:00
5:52 AM,-9999,-9999,N/A,29.64,10.0,SSE,4.6,-,N/A,,Unknown,160,2013-05-14 10:52:00
6:12 AM,55.4,42.8,63,29.60,10.0,SE,10.4,-,N/A,,Clear,130,2013-05-14 11:12:00
6:32 AM,57.2,42.8,59,29.59,10.0,SE,11.5,-,N/A,,Clear,130,2013-05-14 11:32:00
6:52 AM,57.2,44.6,63,29.62,10.0,SE,4.6,-,N/A,,Scattered Clouds,140,2013-05-14 11:52:00
7:12 AM,59.0,44.6,59,29.59,10.0,SE,9.2,-,N/A,,Clear,130,2013-05-14 12:12:00
7:32 AM,60.8,46.4,59,29.59,10.0,SE,6.9,-,N/A,Rain-Thunderstorm,Light Thunderstorms and Rain,140,2013-05-14 12:32:00
7:52 AM,60.8,50.0,68,29.58,7.0,SE,9.2,-,N/A,Rain,Light Rain,140,2013-05-14 12:52:00
8:12 AM,62.6,48.2,59,29.60,10.0,South,10.4,-,0.01,Rain,Light Rain,170,2013-05-14 13:12:00
8:32 AM,60.8,48.2,63,29.59,10.0,South,13.8,-,0.01,Rain,Light Rain,170,2013-05-14 13:32:00
8:52 AM,64.4,50.0,59,29.59,10.0,SSE,13.8,-,0.01,,Scattered Clouds,160,2013-05-14 13:52:00
9:12 AM,66.2,51.8,60,29.56,10.0,SSE,12.7,-,N/A,,Scattered Clouds,160,2013-05-14 14:12:00
9:32 AM,71.6,51.8,50,29.54,10.0,NW,3.5,10.4,N/A,,Clear,310,2013-05-14 14:32:00
9:52 AM,82.4,51.8,35,29.49,10.0,SSE,20.7,-,N/A,,Clear,150,2013-05-14 14:52:00
10:12 AM,84.2,48.2,29,29.49,10.0,SE,13.8,20.7,N/A,,Clear,140,2013-05-14 15:12:00
10:32 AM,84.2,50.0,30,29.50,10.0,SSE,13.8,-,N/A,,Clear,160,2013-05-14 15:32:00
10:52 AM,87.8,48.2,25,29.50,10.0,South,17.3,-,N/A,,Clear,180,2013-05-14 15:52:00
11:12 AM,87.8,46.4,24,29.52,10.0,South,13.8,-,N/A,,Clear,180,2013-05-14 16:12:00
11:32 AM,89.6,46.4,22,29.52,10.0,SW,16.1,-,N/A,,Clear,220,2013-05-14 16:32:00
11:52 AM,89.6,46.4,22,29.53,10.0,WNW,15.0,18.4,N/A,,Clear,290,2013-05-14 16:52:00
12:12 PM,89.6,46.4,22,29.53,10.0,West,9.2,16.1,N/A,,Clear,270,2013-05-14 17:12:00
12:32 PM,91.4,46.4,21,29.53,10.0,WNW,19.6,27.6,N/A,,Clear,290,2013-05-14 17:32:00
12:52 PM,91.4,46.4,21,29.53,10.0,WNW,15.0,23.0,N/A,,Clear,290,2013-05-14 17:52:00
1:12 PM,91.4,46.4,21,29.53,10.0,NW,17.3,26.5,N/A,,Clear,310,2013-05-14 18:12:00
1:32 PM,93.2,46.4,20,29.54,10.0,NW,21.9,27.6,N/A,,Clear,310,2013-05-14 18:32:00
1:52 PM,93.2,46.4,20,29.54,10.0,WNW,18.4,27.6,N/A,,Clear,300,2013-05-14 18:52:00
2:12 PM,93.2,46.4,20,29.54,10.0,WNW,19.6,29.9,N/A,,Clear,300,2013-05-14 19:12:00
2:32 PM,93.2,42.8,17,29.55,10.0,NW,25.3,35.7,N/A,,Clear,310,2013-05-14 19:32:00
2:52 PM,93.2,44.6,19,29.55,10.0,NW,27.6,33.4,N/A,,Clear,310,2013-05-14 19:52:00
3:12 PM,93.2,44.6,19,29.55,10.0,WNW,32.2,38.0,N/A,,Clear,300,2013-05-14 20:12:00
3:32 PM,93.2,39.2,15,29.56,10.0,WNW,32.2,40.3,N/A,,Clear,300,2013-05-14 20:32:00
3:52 PM,91.4,42.8,18,29.57,10.0,WNW,28.8,38.0,N/A,,Clear,300,2013-05-14 20:52:00
4:12 PM,89.6,35.6,15,29.58,10.0,NW,33.4,43.7,N/A,,Clear,310,2013-05-14 21:12:00
4:32 PM,87.8,37.4,17,29.59,10.0,WNW,29.9,39.1,N/A,,Clear,300,2013-05-14 21:32:00
4:52 PM,87.8,32.0,14,29.59,10.0,WNW,29.9,41.4,N/A,,Clear,300,2013-05-14 21:52:00
5:12 PM,87.8,33.8,15,29.59,10.0,WNW,32.2,40.3,N/A,,Clear,290,2013-05-14 22:12:00
5:32 PM,86.0,33.8,15,29.60,10.0,NW,29.9,35.7,N/A,,Clear,310,2013-05-14 22:32:00
5:52 PM,86.0,33.8,15,29.60,10.0,NW,33.4,40.3,N/A,,Clear,310,2013-05-14 22:52:00
6:12 PM,84.2,33.8,16,29.61,10.0,WNW,31.1,41.4,N/A,,Clear,300,2013-05-14 23:12:00
6:32 PM,82.4,35.6,19,29.62,10.0,NW,28.8,38.0,N/A,,Clear,310,2013-05-14 23:32:00
6:52 PM,82.4,35.6,19,29.62,10.0,WNW,26.5,34.5,N/A,,Clear,300,2013-05-14 23:52:00
7:12 PM,80.6,37.4,21,29.63,10.0,NW,29.9,36.8,N/A,,Clear,320,2013-05-15 00:12:00
7:32 PM,78.8,39.2,24,29.64,10.0,NW,33.4,40.3,N/A,,Clear,310,2013-05-15 00:32:00
7:52 PM,75.2,41.0,29,29.65,10.0,NW,28.8,39.1,N/A,,Clear,310,2013-05-15 00:52:00
8:12 PM,75.2,42.8,31,29.66,10.0,NW,29.9,35.7,N/A,,Clear,320,2013-05-15 01:12:00
8:32 PM,71.6,42.8,35,29.68,10.0,NW,26.5,34.5,N/A,,Clear,320,2013-05-15 01:32:00
8:52 PM,69.8,42.8,38,29.69,10.0,NW,26.5,33.4,N/A,,Clear,320,2013-05-15 01:52:00
9:12 PM,69.8,42.8,38,29.70,10.0,NW,24.2,32.2,N/A,,Clear,320,2013-05-15 02:12:00
9:32 PM,66.2,42.8,43,29.72,10.0,NW,20.7,31.1,N/A,,Clear,320,2013-05-15 02:32:00
9:52 PM,66.2,42.8,43,29.74,10.0,NW,26.5,33.4,N/A,,Clear,320,2013-05-15 02:52:00
10:12 PM,64.4,42.8,45,29.75,10.0,NW,17.3,-,N/A,,Clear,320,2013-05-15 03:12:00
10:32 PM,64.4,44.6,49,29.76,10.0,NW,15.0,-,N/A,,Clear,320,2013-05-15 03:32:00
10:52 PM,62.6,44.6,52,29.77,10.0,NW,15.0,-,N/A,,Clear,310,2013-05-15 03:52:00
11:12 PM,62.6,44.6,52,29.78,10.0,NW,11.5,-,N/A,,Clear,310,2013-05-15 04:12:00
11:32 PM,60.8,42.8,52,29.79,10.0,NW,10.4,-,N/A,,Clear,310,2013-05-15 04:32:00
11:52 PM,59.0,42.8,55,29.80,10.0,NW,10.4,-,N/A,,Clear,320,2013-05-15 04:52:00